Location: Hall+in+Tirol
(47.2830°N, 11.5170°E)
Time: 03:03:12
(UTC+02:00)

Amateur Radio Satellites - All Passes

Search period start: 28 August 2014 02:33
Search period end: 29 August 2014 02:33
Location: Hall+in+Tirol, 47.2830°N, 11.5170°E

Satellite Date Start Highest point End Downlink Frequencies (MHz)
Time Altitude Azimuth
PCSat 28 Aug 02:40:23 02:45:47 59° 52° (NE) 02:51:08 145.825 MHz
Oscar 19 28 Aug 02:53:47 02:59:01 71° 103° (ESE) 03:04:11 437.125 CW, 437.150 USB
TMSAT-1 28 Aug 03:10:31 03:13:57 17° 89° (E) 03:17:22 436.925 FM
OPAL 28 Aug 03:16:54 03:20:38 21° 57° (ENE) 03:24:25 ?
ITAMSAT 1 28 Aug 03:18:25 03:23:30 53° 100° (E) 03:28:34 435.822 SSB
Oscar 16 28 Aug 03:28:11 03:33:18 59° 289° (WNW) 03:38:24 437.025 USB, Beacon 2401.1428
Uribyol 2 28 Aug 03:29:14 03:34:26 70° 103° (ESE) 03:39:36 436.500 FM
AO-27 28 Aug 03:46:30 03:51:43 87° 286° (WNW) 03:56:55 436.795 MHz FM
AO-Echo 28 Aug 03:48:20 03:53:03 74° 287° (WNW) 03:57:44 ?
Sapphire 28 Aug 03:54:03 03:59:12 45° 245° (WSW) 04:04:19 437.095 MHz 1200 baud AX-25 AFSK
Gurwin Techsat 1B 28 Aug 03:55:21 04:00:34 54° 100° (E) 04:05:46 435.225 FM
SO-50 28 Aug 04:02:48 04:04:47 13° 108° (ESE) 04:06:47 436.795 FM
JAS-1B 28 Aug 04:07:54 04:15:14 81° 288° (WNW) 04:21:22 435.800 - 435.900 CW/SSB
KITSAT 1 28 Aug 04:22:33 04:28:44 23° 343° (NNW) 04:34:55 435.175 FM
PCSat 28 Aug 04:24:28 04:28:49 25° 251° (WSW) 04:33:08 145.825 MHz
Oscar 19 28 Aug 04:34:12 04:37:49 20° 302° (WNW) 04:41:26 437.125 CW, 437.150 USB
Uosat F 28 Aug 04:36:26 04:40:03 20° 91° (E) 04:43:39 435.120 FM
TMSAT-1 28 Aug 04:49:08 04:54:26 73° 287° (WNW) 04:59:42 436.925 FM
OPAL 28 Aug 04:54:02 04:59:03 65° 256° (WSW) 05:04:10 ?
ITAMSAT 1 28 Aug 04:58:34 05:02:41 25° 299° (WNW) 05:06:47 435.822 SSB
AO-7 28 Aug 05:06:49 05:14:38 43° 99° (E) 05:22:21 29.400 - 29.500 MHz
Uribyol 2 28 Aug 05:09:46 05:13:23 20° 302° (WNW) 05:17:01 436.500 FM
Oscar 16 28 Aug 05:10:44 05:11:37 10° 309° (NW) 05:12:29 437.025 USB, Beacon 2401.1428
AO-27 28 Aug 05:27:38 05:30:30 15° 305° (NW) 05:33:23 436.795 MHz FM
AO-Echo 28 Aug 05:29:44 05:31:00 11° 306° (NW) 05:32:16 ?
Gurwin Techsat 1B 28 Aug 05:35:58 05:40:13 25° 299° (WNW) 05:44:26 435.225 FM
SO-50 28 Aug 05:40:07 05:44:37 89° 307° (NW) 05:49:15 436.795 FM
Saudisat 1A 28 Aug 05:41:37 05:42:22 10° 16° (NNE) 05:43:06 436.775 MHz
JAS-1B 28 Aug 05:59:47 06:04:32 19° 313° (NW) 06:08:50 435.800 - 435.900 CW/SSB
Uosat F 28 Aug 06:14:18 06:19:14 59° 290° (WNW) 06:24:08 435.120 FM
Hamsat 28 Aug 06:17:14 06:20:26 20° 91° (E) 06:23:36 145.90 MHz
UOSAT-12 28 Aug 06:18:51 06:22:30 23° 114° (ESE) 06:26:12 437.025 FM, 437.400 FM
KITSAT 1 28 Aug 06:21:24 06:27:25 22° 13° (NNE) 06:33:24 435.175 FM
JAS-2 28 Aug 06:27:07 06:31:19 24° 93° (E) 06:35:39 435.800 - 435.900 CW/SSB, 435.910 FM
TMSAT-1 28 Aug 06:31:10 06:33:27 13° 307° (NW) 06:35:45 436.925 FM
STRAND 1 28 Aug 06:32:38 06:37:31 48° 69° (ENE) 06:42:25 ?
AO-7 28 Aug 06:59:39 07:07:35 52° 299° (WNW) 07:15:29 29.400 - 29.500 MHz
Saudisat 1A 28 Aug 07:19:29 07:23:23 29° 39° (NE) 07:27:15 436.775 MHz
SO-50 28 Aug 07:22:27 07:25:51 20° 329° (NNW) 07:29:18 436.795 FM
SO-67 28 Aug 07:48:19 07:51:13 24° 95° (E) 07:54:05 435.3500 MHz FM
RS-15 28 Aug 07:51:46 08:01:11 34° 107° (ESE) 08:10:28 29.354 - 29.394 USB, Beacon 29.352 USB
Hamsat 28 Aug 07:52:27 07:56:38 46° 289° (WNW) 08:00:47 145.90 MHz
UOSAT-12 28 Aug 07:57:45 08:02:19 55° 313° (NW) 08:06:59 437.025 FM, 437.400 FM
JAS-2 28 Aug 08:11:46 08:16:44 48° 291° (WNW) 08:21:53 435.800 - 435.900 CW/SSB, 435.910 FM
STRAND 1 28 Aug 08:12:49 08:16:57 25° 267° (W) 08:21:07 ?
KITSAT 1 28 Aug 08:17:26 08:25:09 45° 41° (NE) 08:32:49 435.175 FM
AO-7 28 Aug 08:54:08 08:58:32 16° 322° (NW) 09:02:56 29.400 - 29.500 MHz
Saudisat 1A 28 Aug 08:58:54 09:03:10 47° 239° (WSW) 09:07:23 436.775 MHz
SO-67 28 Aug 09:21:23 09:24:13 24° 292° (WNW) 09:27:02 435.3500 MHz FM
UKube-1 28 Aug 09:27:07 09:28:12 11° 88° (E) 09:29:17 145.840 MHz, 145.915 MHz
UOSAT-12 28 Aug 09:40:37 09:43:30 16° 335° (NNW) 09:46:25 437.025 FM, 437.400 FM
RS-15 28 Aug 10:01:31 10:12:34 78° 310° (NW) 10:23:34 29.354 - 29.394 USB, Beacon 29.352 USB
HO-68 28 Aug 10:08:40 10:15:42 55° 101° (ESE) 10:22:40 435.675 MHz FM
KITSAT 1 28 Aug 10:12:58 10:20:50 57° 244° (WSW) 10:28:38 435.175 FM
SO-50 28 Aug 10:49:00 10:51:00 12° 19° (NNE) 10:53:01 436.795 FM
UKube-1 28 Aug 11:00:39 11:05:01 84° 286° (WNW) 11:09:21 145.840 MHz, 145.915 MHz
Oscar 11 28 Aug 11:09:56 11:14:21 83° 103° (ESE) 11:18:43 145.825 FM, Beacon 2401.500 USB
FUNcube-1 28 Aug 11:27:09 11:31:33 52° 100° (E) 11:36:01 145.950 - 145.970 MHz USB
HO-68 28 Aug 11:56:48 12:03:09 36° 301° (WNW) 12:09:30 435.675 MHz FM
ISS 28 Aug 12:02:48 12:05:29 23° 140° (SE) 12:08:11 145.800 FM
KITSAT 1 28 Aug 12:12:20 12:14:28 11° 264° (W) 12:16:35 435.175 FM
RS-15 28 Aug 12:17:03 12:26:53 36° 340° (NNW) 12:36:49 29.354 - 29.394 USB, Beacon 29.352 USB
SO-50 28 Aug 12:28:34 12:32:57 35° 41° (NE) 12:37:23 436.795 FM
Oscar 19 28 Aug 12:36:16 12:40:10 22° 60° (ENE) 12:44:04 437.125 CW, 437.150 USB
UKube-1 28 Aug 12:39:08 12:40:31 11° 304° (NW) 12:41:53 145.840 MHz, 145.915 MHz
Oscar 11 28 Aug 12:47:53 12:49:55 13° 302° (WNW) 12:51:57 145.825 FM, Beacon 2401.500 USB
ITAMSAT 1 28 Aug 13:02:30 13:05:56 18° 58° (ENE) 13:09:22 435.822 SSB
JAS-1B 28 Aug 13:04:04 13:12:14 33° 57° (ENE) 13:19:38 435.800 - 435.900 CW/SSB
FUNcube-1 28 Aug 13:04:21 13:07:37 20° 297° (WNW) 13:10:56 145.950 - 145.970 MHz USB
UOSAT-12 28 Aug 13:05:06 13:07:55 15° 24° (NNE) 13:10:44 437.025 FM, 437.400 FM
Oscar 16 28 Aug 13:09:27 13:14:15 41° 67° (ENE) 13:19:06 437.025 USB, Beacon 2401.1428
Uribyol 2 28 Aug 13:12:35 13:16:32 23° 60° (ENE) 13:20:29 436.500 FM
AO-Echo 28 Aug 13:26:30 13:30:45 28° 64° (ENE) 13:34:54 ?
AO-27 28 Aug 13:29:28 13:33:54 30° 63° (ENE) 13:38:21 436.795 MHz FM
ISS 28 Aug 13:38:38 13:41:58 74° 337° (NNW) 13:45:19 145.800 FM
Gurwin Techsat 1B 28 Aug 13:41:57 13:45:37 19° 58° (ENE) 13:49:16 435.225 FM
SO-50 28 Aug 14:09:06 14:13:36 42° 241° (WSW) 14:18:09 436.795 FM
MaSat-1 28 Aug 14:09:09 14:13:44 40° 110° (ESE) 14:18:34 437.345 MHz
Oscar 19 28 Aug 14:13:59 14:19:05 61° 259° (WSW) 14:24:15 437.125 CW, 437.150 USB
AO-7 28 Aug 14:19:53 14:25:42 22° 44° (NE) 14:31:31 29.400 - 29.500 MHz
RS-15 28 Aug 14:33:26 14:43:07 34° 15° (NNE) 14:52:59 29.354 - 29.394 USB, Beacon 29.352 USB
TMSAT-1 28 Aug 14:33:57 14:38:45 36° 66° (ENE) 14:43:34 436.925 FM
ITAMSAT 1 28 Aug 14:39:41 14:44:51 76° 256° (WSW) 14:50:03 435.822 SSB
UOSAT-12 28 Aug 14:44:30 14:49:09 52° 46° (NE) 14:53:44 437.025 FM, 437.400 FM
Oscar 16 28 Aug 14:49:14 14:53:43 30° 265° (W) 14:58:15 437.025 USB, Beacon 2401.1428
Uribyol 2 28 Aug 14:50:33 14:55:38 58° 259° (W) 15:00:44 436.500 FM
JAS-1B 28 Aug 14:52:13 15:02:05 79° 256° (WSW) 15:10:59 435.800 - 435.900 CW/SSB
AO-Echo 28 Aug 15:04:35 15:09:22 42° 262° (W) 15:14:03 ?
AO-27 28 Aug 15:08:21 15:13:16 43° 262° (W) 15:18:12 436.795 MHz FM
ISS 28 Aug 15:15:53 15:19:01 37° 358° (N) 15:22:10 145.800 FM
Gurwin Techsat 1B 28 Aug 15:19:43 15:25:01 74° 257° (WSW) 15:30:21 435.225 FM
MaSat-1 28 Aug 15:46:14 15:50:52 36° 310° (NW) 15:55:41 437.345 MHz
Uosat F 28 Aug 15:52:27 15:57:03 38° 66° (ENE) 16:01:41 435.120 FM
AO-7 28 Aug 16:08:54 16:17:12 73° 66° (ENE) 16:25:30 29.400 - 29.500 MHz
TMSAT-1 28 Aug 16:13:52 16:18:40 35° 264° (W) 16:23:31 436.925 FM
ITAMSAT 1 28 Aug 16:24:23 16:25:14 10° 275° (W) 16:26:05 435.822 SSB
UOSAT-12 28 Aug 16:25:10 16:29:02 25° 246° (WSW) 16:32:51 437.025 FM, 437.400 FM
JAS-2 28 Aug 16:44:11 16:48:02 18° 58° (ENE) 16:51:40 435.800 - 435.900 CW/SSB, 435.910 FM
JAS-1B 28 Aug 16:46:52 16:53:39 21° 274° (W) 17:00:05 435.800 - 435.900 CW/SSB
RS-15 28 Aug 16:46:56 16:57:56 67° 45° (NE) 17:09:17 29.354 - 29.394 USB, Beacon 29.352 USB
ISS 28 Aug 16:52:51 16:56:09 56° 18° (NNE) 16:59:27 145.800 FM
Sapphire 28 Aug 16:58:17 17:01:09 15° 104° (ESE) 17:04:02 437.095 MHz 1200 baud AX-25 AFSK
OPAL 28 Aug 17:01:08 17:05:28 26° 96° (E) 17:09:46 ?
Gurwin Techsat 1B 28 Aug 17:05:03 17:05:55 10° 275° (W) 17:06:47 435.225 FM
Hamsat 28 Aug 17:13:46 17:17:04 22° 64° (ENE) 17:20:25 145.90 MHz
PCSat 28 Aug 17:26:05 17:30:33 27° 110° (ESE) 17:35:04 145.825 MHz
MaSat-1 28 Aug 17:28:30 17:29:28 10° 332° (NNW) 17:30:26 437.345 MHz
Uosat F 28 Aug 17:31:31 17:35:55 30° 264° (W) 17:40:20 435.120 FM
AO-7 28 Aug 18:03:45 18:10:41 29° 267° (W) 18:17:40 29.400 - 29.500 MHz
SO-67 28 Aug 18:25:20 18:27:23 15° 64° (ENE) 18:29:27 435.3500 MHz FM
JAS-2 28 Aug 18:26:22 18:32:37 84° 255° (WSW) 18:38:12 435.800 - 435.900 CW/SSB, 435.910 FM
ISS 28 Aug 18:29:44 18:32:48 34° 216° (SW) 18:35:51 145.800 FM
Sapphire 28 Aug 18:38:21 18:43:46 88° 122° (ESE) 18:49:14 437.095 MHz 1200 baud AX-25 AFSK
OPAL 28 Aug 18:39:33 18:44:35 49° 294° (WNW) 18:49:35 ?
STRAND 1 28 Aug 18:42:00 18:44:02 12° 87° (E) 18:46:04 ?
Hamsat 28 Aug 18:48:40 18:52:46 43° 262° (W) 18:56:57 145.90 MHz
HO-68 28 Aug 18:57:24 19:00:56 15° 44° (NE) 19:04:28 435.675 MHz FM
RS-15 28 Aug 18:59:44 19:09:52 44° 249° (WSW) 19:20:22 29.354 - 29.394 USB, Beacon 29.352 USB
PCSat 28 Aug 19:08:21 19:13:40 55° 309° (NW) 19:19:01 145.825 MHz
SO-67 28 Aug 19:56:49 20:00:07 41° 262° (W) 20:03:27 435.3500 MHz FM
JAS-2 28 Aug 20:15:38 20:18:25 13° 272° (W) 20:21:05 435.800 - 435.900 CW/SSB, 435.910 FM
STRAND 1 28 Aug 20:18:51 20:23:59 87° 105° (ESE) 20:29:05 ?
Sapphire 28 Aug 20:23:44 20:27:56 22° 324° (NW) 20:32:10 437.095 MHz 1200 baud AX-25 AFSK
UKube-1 28 Aug 20:25:00 20:27:41 16° 60° (ENE) 20:30:21 145.840 MHz, 145.915 MHz
Oscar 11 28 Aug 20:34:47 20:36:37 13° 58° (ENE) 20:38:29 145.825 FM, Beacon 2401.500 USB
HO-68 28 Aug 20:40:16 20:47:11 57° 65° (ENE) 20:54:09 435.675 MHz FM
PCSat 28 Aug 20:55:03 20:58:20 16° 332° (NNW) 21:01:38 145.825 MHz
UKube-1 28 Aug 21:59:06 22:03:25 64° 258° (WSW) 22:07:45 145.840 MHz, 145.915 MHz
STRAND 1 28 Aug 21:59:32 22:02:29 16° 304° (NW) 22:05:26 ?
Oscar 11 28 Aug 22:07:49 22:12:10 86° 256° (WSW) 22:16:33 145.825 FM, Beacon 2401.500 USB
MaSat-1 28 Aug 22:23:57 22:27:58 25° 44° (NE) 22:31:37 437.345 MHz
FUNcube-1 28 Aug 22:26:47 22:30:53 60° 73° (ENE) 22:35:06 145.950 - 145.970 MHz USB
HO-68 28 Aug 22:28:56 22:35:13 33° 265° (W) 22:41:34 435.675 MHz FM
KITSAT 1 28 Aug 22:53:43 22:57:48 15° 99° (E) 23:01:53 435.175 FM
Saudisat 1A 28 Aug 23:09:04 23:12:20 21° 113° (ESE) 23:15:37 436.775 MHz
Sapphire 28 Aug 23:58:13 23:59:44 11° 17° (NNE) 00:01:15 437.095 MHz 1200 baud AX-25 AFSK
MaSat-1 29 Aug 00:00:46 00:05:25 53° 247° (WSW) 00:09:27 437.345 MHz
FUNcube-1 29 Aug 00:05:26 00:07:44 14° 271° (W) 00:10:04 145.950 - 145.970 MHz USB
PCSat 29 Aug 00:27:23 00:30:18 14° 25° (NNE) 00:33:13 145.825 MHz
KITSAT 1 29 Aug 00:43:42 00:51:42 68° 119° (ESE) 00:59:43 435.175 FM
Saudisat 1A 29 Aug 00:47:13 00:51:34 57° 312° (NW) 00:55:56 436.775 MHz
Oscar 16 29 Aug 01:20:30 01:21:46 11° 85° (E) 01:23:02 437.025 USB, Beacon 2401.1428
Sapphire 29 Aug 01:40:18 01:45:03 30° 41° (NE) 01:49:47 437.095 MHz 1200 baud AX-25 AFSK
PCSat 29 Aug 02:09:53 02:15:08 46° 49° (NE) 02:20:21 145.825 MHz
Oscar 19 29 Aug 02:22:28 02:27:20 38° 97° (E) 02:32:09 437.125 CW, 437.150 USB
